sat.trackr.live / text

‹ back to catalog

ARCSAT-1

NORAD 52161 · 2022-033E

PAYLOAD ACTIVE UNKNOWN

§ Identity

Operator
Country
NOR
Launch date
2022-04-01
Launch site
AFETR
Launch vehicle
Mass (kg)
RCS (m²)

External: N2YO · Heavens-Above · Gunter

§ Orbital elements

Epoch: 2026-05-25T04:36:03.725856Z

Period
92.73 min
Inclination
97.2738°
Eccentricity
0.0003138
Mean motion
15.52974474 rev/d
Perigee alt
405.9 km
Apogee alt
410.2 km
Semi-major
6,786.2 km
B*
2.1214e-4
RAAN
237.1349°
Arg perigee
280.7472°
Mean anomaly
79.3428°
Rev number
23,213

§ Raw data

ARCSAT-11 52161U 22033E   26145.19170979  .00013124  00000+0  21214-3 0  99992 52161  97.2738 237.1349 0003138 280.7472  79.3428 15.52974474232139

JSON: /api/v1/satellites/52161 · /tle

For live sub-satellite position, see the globe view (requires WebGL).

§ Visibility from observer

Set your observer location to see the next 7 days of passes ≥ 10°. The values pass through the URL so the page stays shareable.

No JS? Fill the form by hand. The geolocation button needs JavaScript.

§ Radio — SatNOGS DB

ModeDescriptionDownlinkUplink
FM Mode U 1 314.700 MHz
FM Mode U 2 312.050 MHz
FM Mode U 3 268.800 MHz
FM Mode U 4 267.300 MHz
BPSK S-band telemetry 2.207 GHz
FMN S-band telemetry 2.260 GHz

6 transmitters · refreshed weekly from db.satnogs.org